Alamosa, CO

9:57 AM MDT on September 22, 2017 (GMT -0600)
San Luis Valley Regional / Bergman Field

Weather History for KALS - August, 2012

Change the Weather History Date:

Wednesday, August 1, 2012

  Actual Average Record
Temperature  
Mean Temperature 65 °F 64 °F  
Max Temperature 86 °F 81 °F 89 °F (2005)
Min Temperature 43 °F 48 °F 37 °F (2009)
Degree Days  
Heating Degree Days 0 1  
Month to date heating degree days 0 1  
Since 1 June heating degree days 73 214  
Since 1 July heating degree days 14 46  
Cooling Degree Days 0 1  
Month to date cooling degree days 0 1  
Year to date cooling degree days 103 39  
Since 1 June cooling degree days 103 39  
Growing Degree Days 14 (Base 50)    
Moisture  
Dew Point 46 °F    
Average Humidity 60    
Maximum Humidity 100    
Minimum Humidity 20    
Precipitation  
Precipitation 0.00 in 0.04 in 0.87 in (1966)
Month to date precipitation 0.00 0.04  
Year to date precipitation 2.72 3.72  
Snow  
Snow 0.00 in 0.00 in 0.00 in (2002)
Month to date snowfall 0.0 0.0  
Since 1 June snowfall 0.0 0.0  
Since 1 July snowfall 0.0 0.0  
Snow Depth 0.00 in    
Sea Level Pressure  
Sea Level Pressure 30.20 in    
Wind  
Wind Speed 6 mph (SSW)    
Max Wind Speed 24 mph    
Max Gust Speed 31 mph    
Visibility 7 miles    
Events Fog    
T = Trace of Precipitation, MM = Missing Value Source: NWS Daily Summary

Daily Weather History Graph

Daily Weather History Graph

Search for Another Location

Airport or City:

Trip Planner

Search our weather history database for the weather conditions in past years. The results will help you decide how hot, cold, wet, or windy it might be!

Date:

Astronomy

Aug. 01, 2012 Rise Set
Actual Time 6:08 AM MDT 8:10 PM MDT
Civil Twilight 5:39 AM MDT 8:39 PM MDT
Nautical Twilight 5:04 AM MDT 9:14 PM MDT
Astronomical Twilight 4:26 AM MDT 9:52 PM MDT
Moon 7:44 PM MDT (8/1) 5:39 AM MDT (8/1)
Length of Visible Light 15h 00m
Length of Day
14h 02m
Full, 100% of the Moon is Illuminated
Aug 1
Full
Aug 1
Full
Aug 9
Last Quarter
Aug 17
New
Aug 24
First Quarter

Hourly Weather History & Observations

Time (MDT) Temp. Windchill Dew Point Humidity Pressure Visibility Wind Dir Wind Speed Gust Speed Precip Events Conditions
12:52 AM 57.0 °F - 51.1 °F 81% 30.12 in 10.0 mi North 4.6 mph - N/A   Scattered Clouds
1:52 AM 53.1 °F - 51.1 °F 93% 30.12 in 10.0 mi West 5.8 mph - N/A   Clear
2:52 AM 51.1 °F - 50.0 °F 96% 30.12 in 10.0 mi NW 8.1 mph - N/A   Clear
3:52 AM 50.0 °F - 48.0 °F 93% 30.12 in 10.0 mi Calm Calm - N/A   Clear
4:40 AM 44.6 °F - 44.6 °F 100% 30.41 in 5.0 mi Calm Calm - N/A   Partly Cloudy
4:48 AM 44.6 °F 42.2 °F 44.6 °F 100% 30.41 in 1.8 mi SSE 4.6 mph - N/A   Scattered Clouds
4:52 AM 44.1 °F 41.5 °F 44.1 °F 100% 30.16 in 1.0 mi South 4.6 mph - N/A   Mist
5:00 AM 44.6 °F 42.2 °F 44.6 °F 100% 30.41 in 0.8 mi South 4.6 mph - N/A   Mist
5:06 AM 44.6 °F 42.2 °F 44.6 °F 100% 30.41 in 1.2 mi South 4.6 mph - N/A   Scattered Clouds
5:11 AM 44.6 °F - 42.8 °F 93% 30.41 in 3.0 mi Calm Calm - N/A   Scattered Clouds
5:34 AM 44.6 °F - 42.8 °F 93% 30.41 in 1.8 mi Calm Calm - N/A   Scattered Clouds
5:38 AM 44.6 °F - 42.8 °F 93% 30.41 in 0.8 mi Calm Calm - N/A   Mist
5:49 AM 44.6 °F - 44.6 °F 100% 30.42 in 1.2 mi Calm Calm - N/A   Scattered Clouds
5:52 AM 45.0 °F - 44.1 °F 97% 30.17 in 2.0 mi Calm Calm - N/A   Scattered Clouds
6:00 AM 44.6 °F 43.1 °F 44.6 °F 100% 30.42 in 1.0 mi SSE 3.5 mph - N/A   Mist
6:07 AM 44.6 °F 43.1 °F 44.6 °F 100% 30.42 in 0.5 mi South 3.5 mph - N/A Fog Fog
6:16 AM 44.6 °F - 42.8 °F 93% 30.42 in 0.8 mi Calm Calm - N/A   Clear
6:26 AM 46.4 °F - 44.6 °F 93% 30.42 in 2.0 mi Calm Calm - N/A   Clear
6:34 AM 46.4 °F - 44.6 °F 93% 30.42 in 6.0 mi Calm Calm - N/A   Clear
6:36 AM 46.4 °F - 46.4 °F 100% 30.42 in 1.8 mi Calm Calm - N/A   Clear
6:46 AM 46.4 °F - 46.4 °F 100% 30.43 in 5.0 mi Calm Calm - N/A   Clear
6:52 AM 48.0 °F - 46.9 °F 96% 30.18 in 10.0 mi Calm Calm - N/A   Clear
7:52 AM 57.0 °F - 51.1 °F 81% 30.15 in 10.0 mi Calm Calm - N/A   Clear
8:52 AM 60.1 °F - 51.1 °F 72% 30.17 in 10.0 mi Calm Calm - N/A   Clear
9:52 AM 64.9 °F - 50.0 °F 58% 30.15 in 10.0 mi Variable 3.5 mph - N/A   Clear
10:52 AM 72.0 °F - 48.0 °F 43% 30.12 in 10.0 mi Variable 4.6 mph - N/A   Clear
11:52 AM 73.9 °F - 46.9 °F 38% 30.10 in 10.0 mi East 5.8 mph - N/A   Clear
12:52 PM 78.1 °F - 46.0 °F 32% 30.06 in 10.0 mi South 6.9 mph - N/A   Clear
1:52 PM 82.0 °F - 45.0 °F 27% 30.03 in 10.0 mi SSW 8.1 mph - N/A   Clear
2:52 PM 84.0 °F - 41.0 °F 22% 30.01 in 10.0 mi WSW 6.9 mph - N/A   Clear
3:52 PM 84.0 °F - 39.9 °F 21% 29.99 in 10.0 mi SSW 8.1 mph 17.3 mph N/A   Clear
4:52 PM 82.9 °F - 39.9 °F 22% 30.00 in 10.0 mi South 8.1 mph - N/A   Mostly Cloudy
5:52 PM 80.1 °F - 46.0 °F 30% 30.01 in 10.0 mi North 16.1 mph 24.2 mph N/A   Partly Cloudy
6:52 PM 73.9 °F - 45.0 °F 35% 30.04 in 10.0 mi North 17.3 mph - N/A   Clear
7:52 PM 69.1 °F - 46.0 °F 44% 30.02 in 10.0 mi North 15.0 mph - N/A   Clear
8:52 PM 66.0 °F - 48.0 °F 52% 30.04 in 10.0 mi North 9.2 mph - N/A   Clear
9:52 PM 62.1 °F - 46.9 °F 58% 30.06 in 10.0 mi NNE 5.8 mph - N/A   Clear
10:52 PM 62.1 °F - 48.0 °F 60% 30.05 in 10.0 mi NNW 6.9 mph - N/A   Clear
11:52 PM 57.9 °F - 46.9 °F 67% 30.05 in 10.0 mi North 4.6 mph - N/A   Clear